Altus AFB, OK

12:38 PM CST on December 15, 2019 (GMT -0600)
Altus Air Force Base

Weather History for KLTS - August, 2019

Change the Weather History Date:

Thursday, August 15, 2019

  Actual Average Record
Temperature  
Mean Temperature 84 °F -  
Max Temperature 98 °F 93 °F 102 °F (1999)
Min Temperature 71 °F 70 °F 66 °F (2008)
Cooling Degree Days 20    
Growing Degree Days 34 (Base 50)    
Moisture  
Dew Point 66 °F    
Average Humidity 59    
Maximum Humidity 95    
Minimum Humidity 29    
Precipitation  
Precipitation 0.00 in - - ()
Sea Level Pressure  
Sea Level Pressure 29.95 in    
Wind  
Wind Speed 7 mph (SSE)    
Max Wind Speed 15 mph    
Max Gust Speed 20 mph    
Visibility 10 miles    
Events      
Averages and records for this station are not official NWS values.
T = Trace of Precipitation, MM = Missing Value Source: NWS Daily Summary

Daily Weather History Graph

Daily Weather History Graph

Search for Another Location

Airport or City:

Astronomy

Aug. 15, 2019 Rise Set
Actual Time 6:57 AM CDT 8:25 PM CDT
Civil Twilight 6:30 AM CDT 8:51 PM CDT
Nautical Twilight 5:58 AM CDT 9:23 PM CDT
Astronomical Twilight 5:25 AM CDT 9:57 PM CDT
Moon 8:53 PM CDT 6:55 AM CDT
Length of Visible Light 14h 20m
Length of Day
13h 27m
Full, 100% of the Moon is Illuminated
Aug 15
Full
Aug 23
Last Quarter
Aug 30
New
Sep 5
First Quarter
Sep 13
Full

Hourly Weather History & Observations

Time (CDT) Temp. Heat Index Dew Point Humidity Pressure Visibility Wind Dir Wind Speed Gust Speed Precip Events Conditions
12:56 AM 78.8 °F - 66.9 °F 67% 30.04 in 10.0 mi East 8.1 mph - N/A   Clear
1:56 AM 77.4 °F - 67.6 °F 72% 30.02 in 10.0 mi ESE 6.9 mph - N/A   Clear
2:56 AM 74.1 °F - 68.5 °F 83% 30.01 in 10.0 mi ESE 3.5 mph - N/A   Clear
3:56 AM 72.5 °F - 68.7 °F 88% 30.01 in 10.0 mi NNE 3.5 mph - N/A   Clear
4:56 AM 72.7 °F - 69.3 °F 89% 29.99 in 10.0 mi ESE 4.6 mph - N/A   Clear
5:56 AM 71.4 °F - 69.6 °F 94% 30.00 in 10.0 mi Calm Calm - N/A   Clear
6:56 AM 71.2 °F - 69.6 °F 95% 30.01 in 10.0 mi Calm Calm - N/A   Clear
7:56 AM 73.6 °F - 71.8 °F 94% 30.04 in 10.0 mi Calm Calm - N/A   Scattered Clouds
8:56 AM 79.5 °F - 70.5 °F 74% 30.04 in 10.0 mi SW 3.5 mph - N/A   Mostly Cloudy
9:56 AM 82.6 °F 86.1 °F 69.1 °F 64% 30.02 in 10.0 mi West 8.1 mph - N/A   Mostly Cloudy
10:56 AM 86.0 °F 90.4 °F 69.4 °F 58% 30.01 in 10.0 mi South 5.8 mph - N/A   Mostly Cloudy
11:56 AM 90.0 °F 95.4 °F 70.0 °F 52% 29.98 in 10.0 mi South 9.2 mph - N/A   Scattered Clouds
12:56 PM 91.9 °F 97.4 °F 69.4 °F 48% 29.97 in 10.0 mi South 6.9 mph - N/A   Partly Cloudy
1:56 PM 93.7 °F 97.2 °F 67.1 °F 41% 29.95 in 10.0 mi SE 11.5 mph - N/A   Clear
2:56 PM 96.4 °F 97.9 °F 63.3 °F 33% 29.92 in 10.0 mi SSE 10.4 mph - N/A   Scattered Clouds
3:56 PM 97.5 °F 98.2 °F 61.7 °F 30% 29.89 in 10.0 mi SSE 11.5 mph - N/A   Partly Cloudy
4:56 PM 98.2 °F 98.9 °F 61.3 °F 29% 29.87 in 10.0 mi South 11.5 mph - N/A   Partly Cloudy
5:56 PM 97.9 °F 99.3 °F 62.1 °F 31% 29.85 in 10.0 mi SSE 15.0 mph 19.6 mph N/A   Clear
6:56 PM 95.2 °F 96.8 °F 63.1 °F 35% 29.84 in 10.0 mi SSE 12.7 mph - N/A   Clear
7:56 PM 88.0 °F 89.0 °F 63.9 °F 44% 29.83 in 10.0 mi SSE 10.4 mph - N/A   Scattered Clouds
8:56 PM 84.4 °F 85.0 °F 62.4 °F 47% 29.84 in 10.0 mi SE 8.1 mph - N/A   Scattered Clouds
9:56 PM 84.7 °F 85.4 °F 62.2 °F 47% 29.86 in 10.0 mi SSE 11.5 mph - N/A   Scattered Clouds
10:56 PM 84.9 °F 85.9 °F 63.5 °F 48% 29.88 in 10.0 mi SSE 12.7 mph - N/A   Scattered Clouds
11:56 PM 81.5 °F 83.3 °F 64.8 °F 57% 29.88 in 10.0 mi SSE 9.2 mph - N/A   Clear